Weather in Holubivka

Ukraine / Luhansk Region     48°38′15″N   38°38′36″E
temp.,
°C
wind,
m/s
gust,
m/s
humid.,
%
clouds,
%
prec.,
mm/h
press.,
hPa
HPBL,
m
15 april, thu
thu1500:00+10wsw377986 0.0 1016213
03:00+8wsw35863 0.0 1016128
06:00+7ssw22854 0.0 101644
09:00+12ssw356295 0.0 1016607
12:00+16s574989 0.0 10151674
15:00+17s794638 0.2 10142063
18:00+13ssw610664 0.3 10151211
21:00+10s510790 0.3 1015341
16 april, fri
fri1600:00+8s38880 0.0 1016237
03:00+7s36870 0.0 1016132
06:00+6s369011 0.0 1017145
09:00+11s45605 0.0 1018803
12:00+15s684830 0.0 10181852
15:00+16ssw6839100 0.0 10172173
18:00+14sw454979 0.0 10171506
21:00+10s236657 0.0 101964
17 april, sat
sat1700:00+9ssw3770100 0.0 1019328
03:00+7wsw257832 0.1 1019135
06:00+6wsw258450 0.0 1020113
09:00+9wsw556592 0.0 1020743
12:00+12wsw554531 0.0 10201805
15:00+12wsw765167 0.0 10211521
18:00+10wsw555418 0.0 10211178
21:00+7wsw37680 0.0 1022166
18 april, sun
sun1800:00+7w237320 0.0 102257
03:00+6w11756 0.0 102112
06:00+6wsw117388 0.0 102010
09:00+11w33575 0.0 1019959
12:00+14wsw454657 0.0 10181618
15:00+16wsw4541100 0.0 10172071
18:00+14w2446100 0.0 1017125
21:00+10n3467100 0.0 1018224
19 april, mon
mon1900:00+10nw227155 0.0 101788
03:00+7nw228581 0.0 101815
06:00+6nnw238656 0.0 101884
09:00+11nne4569100 0.0 1017745
12:00+14nne2250100 0.0 10171648
15:00+16ne544462 0.1 10161808
18:00+14ne555186 0.0 10171255
21:00+11ne51267100 0.0 1016346